CST,Max TemperatureF,Mean TemperatureF,Min TemperatureF,Max Dew PointF,MeanDew PointF,Min DewpointF,Max Humidity, Mean Humidity, Min Humidity, Max Sea Level PressureIn, Mean Sea Level PressureIn, Min Sea Level PressureIn, Max VisibilityMiles, Mean VisibilityMiles, Min VisibilityMiles, Max Wind SpeedMPH, Mean Wind SpeedMPH, Max Gust SpeedMPH,PrecipitationIn, CloudCover, Events, WindDirDegrees
2013-2-1,26,13,0,15,5,-6,83,69,54,30.52,30.37,30.16,10,10,10,17,8,21,0.00,2,,195
2013-2-2,42,32,22,32,25,16,85,72,58,30.25,30.17,30.09,10,10,10,23,6,31,0.00,4,,298
2013-2-3,45,38,30,28,22,16,70,55,39,30.30,30.12,29.87,10,10,10,21,9,29,0.00,0,,248
2013-2-4,36,28,20,28,23,19,96,84,72,30.03,29.96,29.81,10,10,7,22,6,25,0.00,3,,357
2013-2-5,54,37,20,33,26,20,88,63,38,30.13,30.01,29.94,10,9,5,21,6,26,0.00,2,,276
2013-2-6,61,43,24,39,31,22,92,64,35,30.13,30.00,29.88,10,10,10,21,9,25,0.00,3,,165
2013-2-7,52,42,32,40,35,25,83,71,59,30.25,30.01,29.87,10,9,6,23,12,29,T,7,Rain,333
2013-2-8,41,35,29,27,25,24,85,68,51,30.39,30.31,30.25,10,10,7,16,8,22,0.00,5,,77
2013-2-9,48,39,30,35,29,25,85,69,53,30.26,30.03,29.75,10,9,6,21,12,25,T,4,Rain,143
2013-2-10,52,44,35,43,34,22,92,69,46,29.87,29.58,29.41,10,9,4,37,22,48,0.05,7,Rain,211
2013-2-11,47,35,22,24,22,19,81,60,38,30.20,30.10,29.90,10,10,10,31,11,39,0.00,1,,293
2013-2-12,45,31,17,26,20,12,92,66,40,30.22,30.10,29.97,10,9,4,12,4,14,0.00,1,,194
2013-2-13,57,39,20,26,23,18,92,60,27,29.96,29.87,29.80,10,10,10,17,5,22,0.00,0,,227
2013-2-14,50,41,32,31,26,20,70,54,37,30.21,30.02,29.83,10,10,7,25,13,31,T,3,Rain-Snow,315
2013-2-15,36,26,16,27,15,10,81,60,38,30.43,30.35,30.21,10,10,8,24,11,31,T,4,,340
2013-2-16,34,25,15,21,17,12,88,70,51,30.37,30.24,30.09,10,10,8,16,7,20,0.00,5,,190
2013-2-17,60,42,24,31,24,18,81,57,33,30.08,29.90,29.64,10,10,10,21,10,26,0.00,0,,153
2013-2-18,53,38,22,34,26,14,70,56,41,30.10,29.75,29.54,10,10,5,36,17,44,0.03,3,Rain-Snow,313
2013-2-19,30,21,11,15,6,0,77,53,28,30.42,30.30,30.12,10,10,10,26,12,33,0.00,0,,315
2013-2-20,25,17,9,9,5,0,67,57,46,30.46,30.35,30.27,10,10,10,12,8,21,0.00,4,,70
2013-2-21,24,22,20,20,18,10,91,71,50,30.26,29.93,29.80,10,2,0,24,12,31,0.29,8,Fog-Rain-Snow,73
2013-2-22,25,18,10,20,16,7,88,75,62,30.12,29.97,29.80,10,9,3,17,9,22,T,5,Snow,278
2013-2-23,34,17,-1,21,8,-2,100,78,56,30.11,30.03,29.97,10,6,0,12,5,14,0.00,0,Fog,186
2013-2-24,42,26,10,25,15,5,92,69,45,30.08,30.01,29.98,10,4,0,12,4,15,0.00,2,Fog,77
2013-2-25,38,33,28,28,25,22,78,69,59,30.04,29.95,29.79,10,9,7,21,11,25,0.00,4,,29
2013-2-26,36,33,30,30,29,27,92,81,70,29.89,29.73,29.66,10,2,0,29,20,37,0.06,8,Fog-Snow,351
2013-2-27,35,32,28,27,25,23,85,75,64,30.08,29.93,29.84,10,4,1,28,18,35,T,7,Snow,320
2013-2-28,32,30,27,25,23,21,81,77,72,30.24,30.18,30.07,10,10,8,25,14,29,0.00,7,,332